STARLINK-32774 (62737 NORAD) Tracking and Keplerian Element Data

This shows tracking and keplerian element data for the satellite.

Feedback or suggestion? Click here.




ElementValue
Catalog62737
NameSTARLINK-32774
Epoch Orbit221
Epoch Day35.25001157
Epoch Year2025
RAAN253.8801
Inclination42.9995
Eccentricity0.0001862
Argument of Perigee264.3559
Mean Anonmoly99.0895
Mean Motion15.64338348
Decay Rate-0.01474846
L11 62737U 25014C 25035.25001157 -.01474846 00000+0 -16738-1 0 9994
L22 62737 42.9995 253.8801 0001862 264.3559 99.0895 15.64338348 2213



Live tracking and technical data element details for STARLINK-32774 (NORAD 62737). STARLINK-32774 can be tracked NOW for your location showing map with azimuth and elevation plus other details from your city location.







IsCatalogInMostPopularTable: catalog: 62737, numindb: 3
Update: records affected: 1



GetName: 62737 STARLINK-32774

Hit Count: updated at: Sun, 09 Feb 2025 14:30:54 GMT